Orangeburg, SC

11:49 PM EDT on March 23, 2017 (GMT -0400)
Orangeburg Municipal

Weather History for KOGB - March, 2014

Change the Weather History Date:

Saturday, March 29, 2014

  Actual Average Record
Temperature  
Mean Temperature 67 °F 60 °F  
Max Temperature 79 °F 72 °F 87 °F (2012)
Min Temperature 55 °F 47 °F 28 °F (1955)
Degree Days  
Heating Degree Days 0 6  
Month to date heating degree days 370 265  
Since 1 July heating degree days 2234 2197  
Cooling Degree Days 2 1  
Month to date cooling degree days 2 21  
Year to date cooling degree days 8 24  
Growing Degree Days 20 (Base 50)    
Moisture  
Dew Point 60 °F    
Average Humidity 80    
Maximum Humidity 97    
Minimum Humidity 48    
Precipitation  
Precipitation 0.13 in 0.14 in 2.53 in (1991)
Month to date precipitation 2.87 3.75  
Year to date precipitation 8.79 11.32  
Sea Level Pressure  
Sea Level Pressure 29.89 in    
Wind  
Wind Speed 12 mph (SSW)    
Max Wind Speed 28 mph    
Max Gust Speed 37 mph    
Visibility 7 miles    
Events Rain    
T = Trace of Precipitation, MM = Missing Value Source: NWS Daily Summary

Daily Weather History Graph

Daily Weather History Graph

Search for Another Location

Airport or City:

Trip Planner

Search our weather history database for the weather conditions in past years. The results will help you decide how hot, cold, wet, or windy it might be!

Date:

Astronomy

Mar. 29, 2014 Rise Set
Actual Time 7:15 AM EDT 7:41 PM EDT
Civil Twilight 6:50 AM EDT 8:06 PM EDT
Nautical Twilight 6:20 AM EDT 8:35 PM EDT
Astronomical Twilight 5:51 AM EDT 9:05 PM EDT
Moon 6:19 AM EDT (3/29) 6:46 PM EDT (3/29)
Length of Visible Light 13h 16m
Length of Day
12h 26m
Waning Crescent, 2% of the Moon is Illuminated
Mar 29
Waning Crescent
Mar 30
New
Apr 7
First Quarter
Apr 15
Full
Apr 22
Last Quarter

Hourly Weather History & Observations

Time (EDT) Temp. Dew Point Humidity Pressure Visibility Wind Dir Wind Speed Gust Speed Precip Events Conditions
12:53 AM 62.1 °F 60.1 °F 93% 30.06 in 7.0 mi Calm Calm - 0.01 in Rain Light Rain
1:02 AM 62.1 °F 60.1 °F 93% 30.06 in 6.0 mi Calm Calm - 0.00 in   Overcast
1:16 AM 62.1 °F 60.1 °F 93% 30.06 in 5.0 mi ENE 3.5 mph - 0.01 in   Overcast
1:44 AM 62.1 °F 60.1 °F 93% 30.06 in 5.0 mi NNE 3.5 mph - 0.01 in   Overcast
1:53 AM 62.1 °F 60.1 °F 93% 30.05 in 5.0 mi NNE 4.6 mph - 0.01 in   Overcast
2:05 AM 62.1 °F 60.1 °F 93% 30.05 in 5.0 mi ENE 5.8 mph - N/A   Overcast
2:53 AM 61.0 °F 59.0 °F 93% 30.03 in 3.0 mi ENE 4.6 mph - 0.01 in Rain Light Rain
3:53 AM 61.0 °F 59.0 °F 93% 29.99 in 6.0 mi ENE 3.5 mph - 0.00 in   Overcast
4:53 AM 61.0 °F 59.0 °F 93% 29.97 in 5.0 mi East 3.5 mph - 0.02 in   Overcast
5:53 AM 61.0 °F 59.0 °F 93% 29.96 in 4.0 mi ENE 4.6 mph - 0.01 in Rain Light Rain
6:15 AM 61.0 °F 59.0 °F 93% 29.95 in 2.5 mi East 4.6 mph - 0.01 in Rain Light Rain
6:33 AM 61.0 °F 60.1 °F 97% 29.94 in 3.0 mi East 6.9 mph - 0.01 in Rain Light Rain
6:53 AM 62.1 °F 60.1 °F 93% 29.94 in 3.0 mi East 4.6 mph - 0.02 in Rain Light Rain
7:53 AM 62.1 °F 60.1 °F 93% 29.95 in 3.0 mi SE 4.6 mph - 0.05 in Rain Light Rain
8:17 AM 63.0 °F 61.0 °F 93% 29.96 in 2.5 mi SE 5.8 mph - 0.00 in   Overcast
8:32 AM 63.0 °F 61.0 °F 93% 29.96 in 2.5 mi South 5.8 mph - 0.00 in Rain Light Rain
8:42 AM 63.0 °F 61.0 °F 93% 29.96 in 3.0 mi South 4.6 mph - 0.00 in Rain Light Rain
8:53 AM 64.0 °F 62.1 °F 93% 29.95 in 4.0 mi South 4.6 mph - 0.01 in   Overcast
9:31 AM 64.9 °F 62.1 °F 90% 29.93 in 8.0 mi SSW 5.8 mph - N/A   Overcast
9:53 AM 64.9 °F 63.0 °F 93% 29.92 in 8.0 mi SW 6.9 mph - N/A   Overcast
10:02 AM 66.0 °F 63.0 °F 90% 29.93 in 8.0 mi SW 9.2 mph - N/A   Overcast
10:30 AM 66.0 °F 63.0 °F 90% 29.92 in 6.0 mi SW 8.1 mph - N/A   Overcast
10:37 AM 66.0 °F 63.0 °F 90% 29.91 in 7.0 mi SW 8.1 mph - N/A   Overcast
10:46 AM 66.9 °F 64.0 °F 90% 29.91 in 9.0 mi SSW 6.9 mph - N/A   Mostly Cloudy
10:53 AM 68.0 °F 64.0 °F 87% 29.90 in 9.0 mi SSW 6.9 mph - N/A   Mostly Cloudy
11:04 AM 69.1 °F 64.0 °F 84% 29.89 in 10.0 mi SW 10.4 mph - N/A   Mostly Cloudy
11:26 AM 70.0 °F 63.0 °F 78% 29.87 in 10.0 mi SW 11.5 mph - N/A   Overcast
11:45 AM 71.1 °F 62.1 °F 73% 29.84 in 10.0 mi WSW 10.4 mph - N/A   Scattered Clouds
11:53 AM 71.1 °F 61.0 °F 70% 29.83 in 10.0 mi SW 10.4 mph - N/A   Mostly Cloudy
12:15 PM 72.0 °F 61.0 °F 68% 29.82 in 10.0 mi SW 9.2 mph - N/A   Scattered Clouds
12:53 PM 73.0 °F 60.1 °F 64% 29.80 in 10.0 mi South 12.7 mph - N/A   Scattered Clouds
1:53 PM 75.0 °F 59.0 °F 57% 29.77 in 10.0 mi South 11.5 mph - N/A   Partly Cloudy
2:53 PM 78.1 °F 57.9 °F 50% 29.74 in 10.0 mi SW 11.5 mph - N/A   Mostly Cloudy
3:53 PM 77.0 °F 57.9 °F 52% 29.71 in 10.0 mi SSW 13.8 mph - N/A   Overcast
4:53 PM 78.1 °F 57.9 °F 50% 29.68 in 10.0 mi SW 16.1 mph - N/A   Overcast
5:53 PM 78.1 °F 57.9 °F 50% 29.67 in 10.0 mi SW 18.4 mph 24.2 mph N/A   Mostly Cloudy
6:53 PM 75.9 °F 55.9 °F 50% 29.68 in 10.0 mi WSW 19.6 mph 31.1 mph N/A   Mostly Cloudy
7:53 PM 71.1 °F 55.0 °F 57% 29.70 in 10.0 mi West 17.3 mph 24.2 mph N/A   Clear
8:53 PM 69.1 °F 53.1 °F 57% 29.71 in 10.0 mi West 20.7 mph 24.2 mph N/A   Mostly Cloudy
9:53 PM 66.0 °F 54.0 °F 65% 29.72 in 10.0 mi West 11.5 mph - N/A   Partly Cloudy
10:53 PM 64.9 °F 52.0 °F 63% 29.73 in 10.0 mi West 20.7 mph 33.4 mph N/A   Mostly Cloudy
11:53 PM 59.0 °F 44.1 °F 58% 29.76 in 10.0 mi West 24.2 mph 35.7 mph N/A   Partly Cloudy